Weather History for Dallas Love, TX

Change the Weather History Date:

Monday, October 7, 2013

  Actual Average Record
Temperature  
Mean Temperature 68 °F -  
Max Temperature 82 °F 78 °F 90 °F (2011)
Min Temperature 53 °F 59 °F 44 °F (2000)
Cooling Degree Days 2    
Growing Degree Days 18 (Base 50)    
Moisture  
Dew Point 43 °F    
Average Humidity 47    
Maximum Humidity 77    
Minimum Humidity 18    
Precipitation  
Precipitation 0.00 in - - ()
Sea Level Pressure  
Sea Level Pressure 30.10 in    
Wind  
Wind Speed 2 mph (NNE)    
Max Wind Speed 10 mph    
Max Gust Speed -    
Visibility 10 miles    
Events      
Averages and records for this station are not official NWS values.
T = Trace of Precipitation, MM = Missing Value Source: NWS Daily Summary

Daily Weather History Graph

Daily Weather History Graph

Search for Another Location

Airport:

Trip Planner

Search our weather history database for the weather conditions in past years. The results will help you decide how hot, cold, wet, or windy it might be!

Date:

Astronomy

Oct. 07, 2013 Rise Set
Actual Time 7:25 AM CDT 7:03 PM CDT
Civil Twilight 7:01 AM CDT 7:28 PM CDT
Nautical Twilight 6:32 AM CDT 7:57 PM CDT
Astronomical Twilight 6:04 AM CDT 8:25 PM CDT
Moon 10:07 AM CDT (10/7) 9:00 PM CDT (10/7)
Length of Visible Light 12h 27m
Length of Day
11h 37m
Waxing Crescent, 9% of the Moon is Illuminated
Oct 7
Waxing Crescent
Oct 11
First Quarter
Oct 18
Full
Oct 26
Last Quarter
Nov 3
New

Hourly Weather History & Observations

Time (CDT) Temp. Dew Point Humidity Pressure Visibility Wind Dir Wind Speed Gust Speed Precip Events Conditions
12:53 AM 57.0 °F 44.1 °F 62% 30.08 in 10.0 mi Calm Calm - N/A   Clear
1:53 AM 55.9 °F 46.0 °F 69% 30.09 in 10.0 mi Calm Calm - N/A   Clear
2:53 AM 54.0 °F 45.0 °F 72% 30.09 in 10.0 mi Calm Calm - N/A   Clear
3:53 AM 53.1 °F 45.0 °F 74% 30.09 in 10.0 mi Calm Calm - N/A   Clear
4:53 AM 54.0 °F 46.0 °F 75% 30.09 in 10.0 mi Calm Calm - N/A   Clear
5:53 AM 53.1 °F 46.0 °F 77% 30.10 in 10.0 mi Calm Calm - N/A   Clear
6:53 AM 54.0 °F 46.0 °F 75% 30.11 in 10.0 mi Calm Calm - N/A   Clear
7:53 AM 53.1 °F 45.0 °F 74% 30.12 in 10.0 mi Calm Calm - N/A   Clear
8:53 AM 61.0 °F 48.0 °F 62% 30.14 in 10.0 mi Calm Calm - N/A   Clear
9:53 AM 66.9 °F 46.9 °F 49% 30.15 in 10.0 mi Calm Calm - N/A   Clear
10:53 AM 73.0 °F 43.0 °F 34% 30.16 in 10.0 mi Variable 3.5 mph - N/A   Clear
11:53 AM 77.0 °F 39.0 °F 25% 30.15 in 10.0 mi North 6.9 mph - N/A   Clear
12:53 PM 79.0 °F 36.0 °F 21% 30.13 in 10.0 mi NW 6.9 mph - N/A   Clear
1:53 PM 81.0 °F 37.9 °F 21% 30.10 in 10.0 mi Variable 4.6 mph - N/A   Clear
2:53 PM 81.0 °F 36.0 °F 20% 30.09 in 10.0 mi NNW 10.4 mph - N/A   Clear
3:53 PM 82.0 °F 34.0 °F 18% 30.08 in 10.0 mi NE 5.8 mph - N/A   Clear
4:53 PM 82.0 °F 36.0 °F 19% 30.06 in 10.0 mi Calm Calm - N/A   Clear
5:53 PM 82.0 °F 35.1 °F 18% 30.05 in 10.0 mi Calm Calm - N/A   Clear
6:53 PM 78.1 °F 37.0 °F 23% 30.05 in 10.0 mi NNE 3.5 mph - N/A   Clear
7:53 PM 73.0 °F 44.1 °F 35% 30.06 in 10.0 mi North 4.6 mph - N/A   Clear
8:53 PM 66.0 °F 48.0 °F 52% 30.07 in 10.0 mi East 4.6 mph - N/A   Clear
9:53 PM 64.9 °F 46.0 °F 50% 30.09 in 10.0 mi Variable 5.8 mph - N/A   Clear
10:53 PM 63.0 °F 45.0 °F 52% 30.09 in 10.0 mi ENE 5.8 mph - N/A   Clear
11:53 PM 62.1 °F 45.0 °F 53% 30.08 in 10.0 mi East 3.5 mph - N/A   Clear